Location: Ash Swamp
(41.5170°N, 74.6157°W)
Time: 02:15:17
(UTC+00:00)

TSX-5 - Pass Details

Date: 14 July 2020
Orbit: 404 x 1328 km, 68.9° (Epoch: 14 August)

Event Time Altitude Azimuth Distance (km) Brightness Sun altitude
Rises 01:36:04 0° 336° (NNW) 2,547 8.5 -10.6°
Reaches altitude 10° 01:38:01 10° 340° (NNW) 1,749 7.4 -10.8°
Maximum altitude 01:41:51 63° 63° (ENE) 670 4.1 -11.4°
Enters shadow 01:45:32 16° 142° (SE) 1,747 5.7 -11.9°
